Location: Alsip
(41.6689°N, 87.7387°W)
Time: 18:35:08
(UTC+00:00)

STARLINK-2717 - Pass Details

Date: 01 August 2021
Orbit: 546 x 548 km, 53.1° (Epoch: 22 September)

Event Time Altitude Azimuth Distance (km) Brightness Sun altitude
Rises 02:30:05 0° 301° (WNW) 2,725 9.1 -13.5°
Reaches altitude 10° 02:32:27 10° 293° (WNW) 1,827 7.5 -13.9°
Maximum altitude 02:36:14 35° 227° (SW) 898 4.7 -14.4°
Enters shadow 02:38:40 19° 171° (S) 1,356 5.2 -14.8°
